DateTimeUTC,F1_A11,F1_S11,BsB_S11,BsG_S11,BsR_S11,BbsB_S11,BbsG_S11,BbsR_S11,BaB_A11,BaG_A11,BaR_A11,Tu_S11,T_S11,Uu_S11,U_S11,P_S11,T1_A11
2021-06-26T00:00:00Z,00000200,20000000,,,,,,,-000.09,-000.15,-000.22,18.1,24.8,05.3,03.5,0668.4,31.1
2021-06-26T00:01:00Z,00000200,20000000,,,,,,,0000.51,0000.44,0000.44,18.0,24.8,05.3,03.5,0668.4,31.1
2021-06-26T00:02:00Z,00000200,20000000,,,,,,,-000.25,0000.10,0000.05,18.0,24.8,05.3,03.5,0668.4,31.1
2021-06-26T00:03:00Z,00000200,60000000,,,,,,,0000.04,-000.46,-000.53,18.0,24.8,05.3,03.5,0668.4,31.0
2021-06-26T00:04:00Z,00000200,40000000,0000.44,0000.05,0000.03,0000.51,0000.30,-000.02,0000.29,0000.31,0000.56,18.1,24.6,05.3,03.5,0669.1,31.0
2021-06-26T00:05:00Z,00000200,00000000,0000.80,0000.22,0000.20,0000.66,0000.18,0000.17,0000.04,0000.29,-000.07,18.1,24.5,05.3,03.6,0669.3,31.1
2021-06-26T00:06:00Z,00000200,00000000,0000.66,0000.52,0000.16,0000.90,0000.46,0000.00,0000.08,0000.04,0000.07,18.2,24.5,05.4,03.7,0669.4,31.1
2021-06-26T00:07:00Z,00000200,00000000,0000.54,0000.39,0000.51,0000.04,0000.10,-000.05,0000.10,0000.05,0000.25,18.2,24.6,05.6,03.8,0669.5,31.1
2021-06-26T00:08:00Z,00000200,00000000,-000.07,0000.52,0000.30,-000.07,0000.20,-000.08,0000.18,0000.30,0000.23,18.3,24.6,05.4,03.6,0669.4,31.1
2021-06-26T00:09:00Z,00000200,00000000,0000.89,0000.47,0000.18,0000.31,0000.50,-000.26,-000.30,-000.25,-000.23,18.3,24.6,05.4,03.6,0669.3,31.1
2021-06-26T00:10:00Z,00000200,00000000,-000.00,0000.30,0000.26,0000.03,0000.14,0000.26,0000.18,-000.06,-000.17,18.3,24.6,05.3,03.6,0669.4,31.1
2021-06-26T00:11:00Z,00000200,00000000,-000.02,0000.05,0000.52,0000.41,0000.23,0000.08,-000.03,0000.13,0000.43,18.2,24.6,05.5,03.7,0669.5,31.1
2021-06-26T00:12:00Z,00000200,00000000,0000.90,0000.82,0000.32,0000.01,0000.08,0000.09,0000.27,0000.10,-000.18,18.2,24.6,05.5,03.7,0669.6,31.1
2021-06-26T00:13:00Z,00000200,00000000,0000.54,0000.63,0000.34,-000.15,0000.32,0000.23,0000.23,0000.36,0000.22,18.1,24.5,05.5,03.7,0669.7,31.1
2021-06-26T00:14:00Z,00000200,00000000,0001.14,0000.46,0000.22,0000.47,0000.41,-000.13,-000.03,0000.02,-000.10,18.1,24.5,05.6,03.8,0669.6,31.0
2021-06-26T00:15:00Z,00000200,00000000,0001.07,0000.91,0000.33,0000.02,0000.34,-000.15,-000.06,-000.32,0000.03,18.1,24.5,05.6,03.8,0669.7,31.0
2021-06-26T00:16:00Z,00000200,00000000,0000.49,0000.02,0000.30,-000.16,0000.29,-000.03,-000.06,0000.03,0000.04,18.0,24.4,05.6,03.8,0669.6,31.0
2021-06-26T00:17:00Z,00000200,00000000,0000.85,0000.32,0000.13,0000.12,0000.22,-000.42,0000.10,0000.39,-000.05,18.0,24.4,05.5,03.7,0669.4,31.0
2021-06-26T00:18:00Z,00000200,00000000,0000.83,0000.23,0000.51,-000.10,0000.23,0000.02,0000.41,-000.03,0000.17,18.0,24.4,05.5,03.7,0669.5,31.0
2021-06-26T00:19:00Z,00000200,00000000,0000.85,0000.22,0000.33,0000.65,0000.27,-000.01,-000.15,-000.03,0000.12,18.0,24.4,05.4,03.7,0669.5,31.0
2021-06-26T00:20:00Z,00000200,00000000,0000.95,-000.10,0000.24,0000.87,0000.13,0000.05,-000.10,0000.02,-000.04,18.1,24.4,05.3,03.6,0669.4,31.1
2021-06-26T00:21:00Z,00000200,00000000,0000.32,0000.36,0000.23,0000.19,0000.10,-000.15,0000.54,0000.14,0000.52,18.1,24.4,05.4,03.7,0669.7,31.1
2021-06-26T00:22:00Z,00000200,00000000,0000.45,0000.59,0000.39,0000.24,0000.25,0000.21,0000.21,0000.29,0000.31,18.2,24.5,05.4,03.7,0669.6,31.1
2021-06-26T00:23:00Z,00000200,00000000,0000.14,0000.57,0000.39,-000.00,0000.24,0000.24,-000.13,0000.26,-000.45,18.2,24.5,05.5,03.8,0669.6,31.1
2021-06-26T00:24:00Z,00000200,00000000,0000.76,0000.23,0000.30,0000.26,0000.04,-000.08,0000.16,0000.04,0000.44,18.3,24.5,05.4,03.7,0669.7,31.1
2021-06-26T00:25:00Z,00000200,00000000,0000.79,0000.26,0000.40,0000.81,0000.17,-000.20,-000.13,-000.24,-000.13,18.3,24.6,05.5,03.8,0669.8,31.1
2021-06-26T00:26:00Z,00000200,00000000,0000.70,-000.05,0000.20,0000.39,0000.05,-000.31,0000.27,0000.58,0000.16,18.3,24.6,05.4,03.7,0669.7,31.1
2021-06-26T00:27:00Z,00000200,00000000,0000.56,0000.39,0000.33,0000.31,0000.33,-000.05,-000.04,-000.16,0000.10,18.3,24.6,05.3,03.6,0669.8,31.1
2021-06-26T00:28:00Z,00000200,00000000,0001.35,0000.39,0000.38,0000.14,0000.53,0000.05,0000.11,0000.09,-000.45,18.3,24.6,05.5,03.7,0669.8,31.1
2021-06-26T00:29:00Z,00000200,00000000,0000.90,0000.44,0000.45,0000.98,0000.54,0000.09,0000.15,0000.05,0000.47,18.3,24.5,05.4,03.7,0669.8,31.1
2021-06-26T00:30:00Z,00000200,00000000,0000.64,0000.09,0000.40,0000.07,0000.25,0000.21,-000.06,0000.13,-000.14,18.2,24.5,05.4,03.7,0669.8,31.1
2021-06-26T00:31:00Z,00000200,00000000,0000.79,0000.37,0000.11,0000.50,0000.22,0000.03,-000.05,-000.27,-000.09,18.2,24.5,05.4,03.7,0669.8,31.0
2021-06-26T00:32:00Z,00000200,00000000,0000.32,0000.31,0000.58,0000.30,0000.63,-000.02,0000.12,-000.34,-000.07,18.2,24.5,05.4,03.7,0669.7,31.0
2021-06-26T00:33:00Z,00000200,00000000,0000.63,0000.37,0000.41,0000.30,0000.12,-000.15,-000.11,0000.37,0000.35,18.1,24.5,05.3,03.6,0669.8,31.1
2021-06-26T00:34:00Z,00000200,00000000,0000.38,0000.42,0000.39,0000.57,0000.32,0000.29,0000.20,0000.33,0000.01,18.1,24.5,05.4,03.6,0669.8,31.1
2021-06-26T00:35:00Z,00000200,00000000,0000.40,0000.69,0000.28,-000.06,0000.46,0000.14,0000.31,0000.10,0000.21,18.2,24.5,05.4,03.7,0669.8,31.1
2021-06-26T00:36:00Z,00000200,00000000,0000.74,0000.38,0000.17,0000.07,0000.16,-000.18,-000.18,-000.12,-000.33,18.2,24.5,05.3,03.6,0669.8,31.1
2021-06-26T00:37:00Z,00000200,00000000,0000.65,0000.48,0000.21,-000.05,0000.54,-000.16,0000.15,0000.03,0000.50,18.3,24.6,05.4,03.7,0669.8,31.1
2021-06-26T00:38:00Z,00000200,00000000,0000.82,0000.35,0000.29,0000.18,0000.30,0000.10,0000.19,0000.06,-000.04,18.3,24.6,05.3,03.6,0669.8,31.1
2021-06-26T00:39:00Z,00000200,00000000,0000.44,0000.34,0000.34,0000.54,0000.00,-000.07,0000.05,-000.18,-000.10,18.3,24.5,05.2,03.5,0669.7,31.1
2021-06-26T00:40:00Z,00000200,00000000,0001.17,0000.29,0000.20,-000.04,0000.43,-000.20,-000.16,0000.41,-000.21,18.2,24.5,05.2,03.6,0669.8,31.1
2021-06-26T00:41:00Z,00000200,00000000,0000.59,0000.15,0000.23,0000.22,0000.04,-000.26,0000.09,-000.03,-000.01,18.2,24.5,05.4,03.6,0669.9,31.1
2021-06-26T00:42:00Z,00000200,00000000,0000.43,0000.11,0000.21,0000.26,0000.18,-000.00,-000.06,-000.12,0000.00,18.1,24.5,05.3,03.6,0669.8,31.0
2021-06-26T00:43:00Z,00000200,00000000,0000.20,0000.23,0000.50,0000.66,0000.15,0000.24,0000.01,0000.27,-000.07,18.1,24.4,05.3,03.6,0669.6,31.1
2021-06-26T00:44:00Z,00000200,00000000,0000.26,0000.08,-000.05,0000.59,0000.03,0000.08,0000.57,-000.13,0000.48,18.1,24.4,05.3,03.6,0669.8,31.1
2021-06-26T00:45:00Z,00000200,00000000,0000.86,0000.07,0000.13,0000.07,0000.16,0000.03,-000.28,0000.16,0000.07,18.0,24.4,05.4,03.6,0669.8,31.0
2021-06-26T00:46:00Z,00000200,00000000,0000.84,0000.19,0000.44,0000.15,-000.03,0000.17,0000.07,0000.10,0000.35,18.0,24.4,05.4,03.7,0669.8,31.0
2021-06-26T00:47:00Z,00000200,00000000,0001.02,0000.27,0000.15,0000.46,0000.46,-000.57,0000.21,0000.01,-000.38,18.0,24.3,05.4,03.7,0669.7,31.0
2021-06-26T00:48:00Z,00000200,00000000,0000.77,0000.20,0000.29,0000.03,0000.19,-000.07,-000.06,0000.39,0000.07,18.0,24.3,05.5,03.7,0669.8,31.0
2021-06-26T00:49:00Z,00000200,00000000,0000.88,0000.48,-000.09,0000.44,0000.28,-000.03,-000.00,0000.11,0000.17,18.0,24.3,05.4,03.7,0669.7,31.0
2021-06-26T00:50:00Z,00000200,00000000,0001.21,0000.46,0000.10,0000.87,0000.23,-000.11,0000.51,-000.18,-000.04,18.0,24.3,05.3,03.6,0669.8,31.0
2021-06-26T00:51:00Z,00000200,00000000,0000.60,0000.26,0000.14,0000.57,0000.35,-000.14,0000.03,0000.25,0000.22,18.1,24.4,05.5,03.7,0669.9,31.0
2021-06-26T00:52:00Z,00000200,00000000,0000.76,0000.13,0000.62,0000.22,0000.42,0000.14,-000.17,-000.12,-000.41,18.2,24.4,05.3,03.6,0669.6,31.1
2021-06-26T00:53:00Z,00000200,00000000,0001.48,0000.40,0000.52,0000.43,0000.24,0000.08,-000.07,0000.43,0000.52,18.2,24.4,05.2,03.6,0669.7,31.1
2021-06-26T00:54:00Z,00000200,00000000,0000.72,0000.28,0000.56,0000.17,0000.37,0000.19,0000.05,-000.36,-000.10,18.2,24.4,05.2,03.6,0669.8,31.1
2021-06-26T00:55:00Z,00000200,00000000,0000.76,0000.33,0000.21,0000.53,0000.11,-000.11,-000.21,0000.05,0000.03,18.2,24.5,05.3,03.6,0670.0,31.1
2021-06-26T00:56:00Z,00000200,00000000,0000.03,0000.34,0000.05,-000.17,0000.18,-000.21,0000.57,0000.07,0000.11,18.2,24.4,05.4,03.6,0669.8,31.1
2021-06-26T00:57:00Z,00000200,40000000,,,,,,,-000.16,0000.20,-000.05,18.2,24.5,05.4,03.7,0669.8,31.0
2021-06-26T00:58:00Z,00000200,60000000,,,,,,,-000.49,-000.53,-000.03,17.9,24.5,05.3,03.5,0668.8,31.0
2021-06-26T00:59:00Z,00000200,20000000,,,,,,,0000.22,-000.07,0000.24,17.9,24.6,05.3,03.5,0668.6,31.0
